Location: Rounton
(54.4000°N, 1.3500°W)
Time: 08:57:33
(UTC+00:00)

Vanguard 1 Rocket - Pass Details

Date: 03 December 2021
Orbit: 651 x 4224 km, 34.3° (Epoch: 19 January)

Event Time Altitude Azimuth Distance (km) Brightness Sun altitude
Rises 04:51:41 0° 245° (WSW) 5,385 - -27.0°
Reaches altitude 10° 04:54:57 10° 237° (WSW) 4,792 - -26.5°
Exits shadow 04:57:45 19° 228° (SW) 4,408 10.4 -26.1°
Maximum altitude 05:08:07 39° 176° (S) 4,257 10.7 -24.6°
Drops below altitude 10° 05:28:44 10° 119° (ESE) 7,343 13.0 -21.6°
Sets 05:35:25 0° 113° (ESE) 8,468 13.8 -20.7°
